"Pseudo-MPEC" for C0V8JH5

Created 2024 Nov 30 20:31:02 UT using Find_Orb

Click here for an explanation of pseudo-MPECs

 
 Astrometry: 
     C0V8JH5* C2024 11 26.23933401 48 13.694+18 36 32.54   ~BQ72 22.11GVNEOCPV00
     C0V8JH5  C2024 11 26.24558301 48 12.013+18 36 20.09   ~BQ72 22.02GVNEOCPV00
     C0V8JH5  C2024 11 26.25181301 48 10.357+18 36 07.38   ~BQ72 21.86GVNEOCPV00
     C0V8JH5  C2024 11 26.25804101 48 08.690+18 35 54.67   ~BQ72 21.75GVNEOCPV00
     C0V8JH5  C2024 11 26.29477001 47 58.970+18 34 38.60   ~BQ7l 22.0 RVNEOCP291
     C0V8JH5  C2024 11 26.30057001 47 57.440+18 34 26.40   ~BQ7l 21.6 RVNEOCP291
     C0V8JH5  C2024 11 26.30635001 47 55.950+18 34 14.20   ~BQ7l 21.9 RVNEOCP291
     C0V8JH5  C2024 11 27.28521001 44 03.250+17 59 32.80   ~BRAV 22.3 RVNEOCP291
     C0V8JH5  C2024 11 27.29881001 43 59.310+17 58 59.70   ~BRAV 21.9 RVNEOCP291
     C0V8JH5  C2024 11 27.31242901 43 55.390+17 58 26.60   ~BRAV 22.0 RVNEOCP291
     C0V8JH5 KB2024 11 28.77800 01 37 19.44 +16 55 20.1    ~BT1H 21.5 GVNEOCP204
     C0V8JH5 KC2024 11 29.06534601 35 53.603+16 41 39.41   ~BT2H 21.27GVNEOCPV06
     C0V8JH5 KC2024 11 29.06810901 35 52.638+16 41 31.52   ~BT2H 21.21GVNEOCPV06
     C0V8JH5 KC2024 11 29.07087301 35 51.652+16 41 23.64   ~BT2H 21.28GVNEOCPV06
     C0V8JH5 KC2024 11 29.07363601 35 50.683+16 41 15.54   ~BT2H 21.13GVNEOCPV06
     C0V8JH5 KB2024 11 30.76523 01 25 47.65 +15 02 03.4    ~BUJH 21.0 RZNEOCP106
     C0V8JH5 KB2024 11 30.77017 01 25 45.50 +15 01 43.7    ~BUJH 20.4 RZNEOCP106
     C0V8JH5 KB2024 11 30.77512 01 25 43.20 +15 01 23.7    ~BUJH 20.7 RZNEOCP106
     C0V8JH5 KB2024 11 30.78006 01 25 41.02 +15 01 03.4    ~BUJH 20.3 RZNEOCP106

Station data:
(106) Črni Vrh  (N45.945905 E14.071100)  Slovenia.  Observer J. Skvarč. 0.6-m
   f/3.3 Deltagraph + CCD.
(204) Schiaparelli Observatory  (N45.868292 E8.769720)  Italy.  Observer L.
   Buzzi. 0.60-m f/4.64 Newtonian + CCD0.84-m f/3.5 reflector + CCD.
(291) LPL/Spacewatch II  (N31.961669 W111.599905)  US/Arizona.  Observers J.
   V. Scotti, R. S. McMillan. 1.8-m f/2.7 reflector + CCD.
(V00) Kitt Peak-Bok  (N31.963125 W111.600190)  US/Arizona.  Observers T. A.
   Pruyne, B. M. Africano, E. J. Christensen, G. A. Farneth, D. C. Fuls, A.
   R. Gibbs, A. D. Grauer, H. Gröller, J. A. Johnson, R. A. Kowalski, S. M.
   Larson, G. J. Leonard, D. Rankin, R. L. Seaman, F. C. Shelly, K. W.
   Wierzchoś. 2.25-m reflector + 4x4K mosaic CCD.
(V06) Catalina Sky Survey-Kuiper  (N32.416871 W110.732550)  US/Arizona.
   Observers T. A. Pruyne, B. M. Africano, E. J. Christensen, G. A. Farneth,
   D. C. Fuls, A. R. Gibbs, A. D. Grauer, H. Gröller, J. A. Johnson, R. A.
   Kowalski, S. M. Larson, G. J. Leonard, D. Rankin, R. L. Seaman, F. C.
   Shelly, K. W. Wierzchoś. 1.55-m reflector + CCD.

Orbital elements:  C0V8JH5
   Perihelion 2025 Jan 10.54530 +/- 0.0184 TT = 13:05:13 (JD 2460686.04530)
Epoch 2024 Nov 30.0 TT = JDT 2460644.5   Earth MOID: 0.0016   Ma: 0.0305
M 341.26446779 +/- 0.08             (J2000 ecliptic)             AutoNEOCP
n   0.45096635 +/- 0.00193          Peri.  225.72418 +/- 0.012
a   1.68412099 +/- 0.00481          Node   253.11859 +/- 0.0050
e   0.4662437 +/- 0.00167           Incl.    2.54524 +/- 0.007
P   2.186/798.271d         H 26.24  G  0.15   U  8.5
q 0.89891004 +/- 0.000253    Q 2.46933194 +/- 0.00987
From 19 observations 2024 Nov. 26-30; mean residual 0".23
Residuals in arcseconds: 
241126 V00  .18+  .06-    241127 291  .48-  .44+    241129 V06  .01-  .10-    
241126 V00  .01+  .10+    241127 291  .19-  .01+    241130 106  .38-  .09+    
241126 V00  .10+  .01+    241127 291  .09+  .11-    241130 106  .64+  .14+    
241126 V00  .01-  .02-    241128 204  .17+  .26+    241130 106  .39-  .02-    
241126 291  .04+  .17-    241129 V06  .19-  .03+    241130 106  .31+  .48-    
241126 291  .07-  .20-    241129 V06  .04-  .04+    
241126 291  .25+  .24-    241129 V06  .16-  .08+    

Ephemerides (geocentric):
Date (UTC) HH   RA             Dec           delta  r     elong  mag " sig PA
---- --------  ------------   ------------  ------ ------ -----  --- --------
2024 11 30 21  01 25 00.135   +14 56 00.81  .05200 1.0242 136.1 21.5 .367 154
2024 11 30 22  01 24 43.037   +14 53 07.62  .05180 1.0240 136.0 21.5 .372 155
2024 11 30 23  01 24 25.825   +14 50 13.05  .05160 1.0238 135.9 21.5 .376 156
2024 12 01 00  01 24 08.498   +14 47 17.09  .05140 1.0236 135.7 21.5 .381 157
2024 12 01 01  01 23 51.053   +14 44 19.72  .05120 1.0233 135.6 21.5 .387 158
2024 12 01 02  01 23 33.491   +14 41 20.91  .05100 1.0231 135.5 21.5 .392 159
2024 12 01 03  01 23 15.808   +14 38 20.66  .05080 1.0229 135.4 21.5 .398 161
2024 12 01 04  01 22 58.006   +14 35 18.95  .05060 1.0226 135.2 21.5 .404 162
2024 12 01 05  01 22 40.081   +14 32 15.76  .05040 1.0224 135.1 21.5 .410 163
2024 12 01 06  01 22 22.033   +14 29 11.08  .05020 1.0222 135.0 21.5 .416 164
2024 12 01 07  01 22 03.860   +14 26 04.88  .05000 1.0220 134.9 21.4 .423 165
2024 12 01 08  01 21 45.561   +14 22 57.15  .04980 1.0217 134.7 21.4 .429 166
2024 12 01 09  01 21 27.134   +14 19 47.87  .04960 1.0215 134.6 21.4 .437 167
2024 12 01 10  01 21 08.579   +14 16 37.03  .04940 1.0213 134.5 21.4 .444 168
2024 12 01 11  01 20 49.893   +14 13 24.60  .04921 1.0210 134.4 21.4 .452 169
2024 12 01 12  01 20 31.076   +14 10 10.56  .04901 1.0208 134.2 21.4 .460 170
2024 12 01 13  01 20 12.125   +14 06 54.90  .04881 1.0206 134.1 21.4 .468 171
2024 12 01 14  01 19 53.039   +14 03 37.60  .04861 1.0204 134.0 21.4 .477 172
2024 12 01 15  01 19 33.818   +14 00 18.64  .04841 1.0201 133.8 21.4 .486 173
2024 12 01 16  01 19 14.458   +13 56 57.99  .04821 1.0199 133.7 21.4 .495 174
2024 12 01 17  01 18 54.959   +13 53 35.64  .04802 1.0197 133.6 21.4 .505 175
2024 12 01 18  01 18 35.319   +13 50 11.57  .04782 1.0195 133.4 21.4 .515 176
2024 12 01 19  01 18 15.537   +13 46 45.76  .04762 1.0192 133.3 21.4 .526 178
2024 12 01 20  01 17 55.610   +13 43 18.18  .04742 1.0190 133.2 21.4 .537 179
2024 12 01 21  01 17 35.538   +13 39 48.81  .04722 1.0188 133.0 21.4 .548   0
2024 12 01 22  01 17 15.318   +13 36 17.64  .04703 1.0185 132.9 21.4 .560   1
2024 12 01 23  01 16 54.949   +13 32 44.63  .04683 1.0183 132.7 21.4 .572   2
2024 12 02 00  01 16 34.429   +13 29 09.77  .04663 1.0181 132.6 21.4 .585   3
2024 12 02 01  01 16 13.757   +13 25 33.04  .04644 1.0179 132.5 21.3 .598   4
2024 12 02 02  01 15 52.930   +13 21 54.41  .04624 1.0176 132.3 21.3 .612   4
2024 12 02 03  01 15 31.947   +13 18 13.86  .04604 1.0174 132.2 21.3 .626   5
2024 12 02 04  01 15 10.806   +13 14 31.36  .04585 1.0172 132.0 21.3 .640   6
2024 12 02 05  01 14 49.504   +13 10 46.89  .04565 1.0170 131.9 21.3 .655   7
2024 12 02 06  01 14 28.042   +13 07 00.42  .04545 1.0167 131.7 21.3 .671   8
2024 12 02 07  01 14 06.415   +13 03 11.94  .04526 1.0165 131.6 21.3 .687   9
2024 12 02 08  01 13 44.623   +12 59 21.41  .04506 1.0163 131.5 21.3 .704  10
2024 12 02 09  01 13 22.663   +12 55 28.81  .04487 1.0161 131.3 21.3 .721  11
2024 12 02 10  01 13 00.534   +12 51 34.12  .04467 1.0158 131.2 21.3 .738  12
2024 12 02 11  01 12 38.233   +12 47 37.30  .04448 1.0156 131.0 21.3 .757  12
2024 12 02 12  01 12 15.758   +12 43 38.33  .04428 1.0154 130.9 21.3 .775  13
2024 12 02 13  01 11 53.108   +12 39 37.18  .04409 1.0152 130.7 21.3 .795  14
2024 12 02 14  01 11 30.279   +12 35 33.83  .04389 1.0150 130.6 21.3 .815  15
2024 12 02 15  01 11 07.271   +12 31 28.25  .04370 1.0147 130.4 21.3 .835  16
2024 12 02 16  01 10 44.081   +12 27 20.40  .04350 1.0145 130.3 21.3 .856  16
2024 12 02 17  01 10 20.706   +12 23 10.26  .04331 1.0143 130.1 21.3 .878  17
2024 12 02 18  01 09 57.144   +12 18 57.80  .04312 1.0141 129.9 21.2 .900  18
2024 12 02 19  01 09 33.394   +12 14 42.99  .04292 1.0138 129.8 21.2 .923  19
2024 12 02 20  01 09 09.452   +12 10 25.80  .04273 1.0136 129.6 21.2 .947  19